| time (UTC) | temp F | wind direction | speed MPH | gust MPH | rain 1hr in | rain 24hr in | rain mn in | humidity % | barometer mb |
| 20260506090529 | 70 | 167 | 3.0 | 7.0 | 0.00 | 0.00 | 0.00 | 77 | 1009.8 |
| 20260506085525 | 70 | 143 | 3.0 | 7.0 | 0.00 | 0.00 | 0.00 | 76 | 1009.8 |
| 20260506084601 | 70 | 156 | 2.0 | 8.0 | 0.00 | 0.00 | 0.00 | 76 | 1009.7 |
| 20260506083516 | 70 | 151 | 3.0 | 9.0 | 0.00 | 0.00 | 0.00 | 76 | 1009.8 |
| 20260506082532 | 70 | 172 | 4.0 | 10.0 | 0.00 | 0.00 | 0.00 | 75 | 1009.5 |
| 20260506081528 | 70 | 170 | 3.0 | 8.0 | 0.00 | 0.00 | 0.00 | 75 | 1009.6 |
| 20260506080544 | 70 | 178 | 4.0 | 9.0 | 0.00 | 0.00 | 0.00 | 75 | 1009.6 |
| 20260506072608 | 71 | 167 | 4.0 | 15.0 | 0.00 | 0.00 | 0.00 | 73 | 1009.7 |
| 20260506071604 | 71 | 178 | 3.0 | 10.0 | 0.00 | 0.00 | 0.00 | 73 | 1009.3 |
| 20260506070520 | 71 | 166 | 3.0 | 10.0 | 0.00 | 0.00 | 0.00 | 73 | 1009.2 |
| 20260506061519 | 71 | 158 | 4.0 | 9.0 | 0.00 | 0.00 | 0.00 | 71 | 1010.0 |
| 20260506060535 | 71 | 150 | 3.0 | 10.0 | 0.00 | 0.00 | 0.00 | 71 | 1009.9 |
| 20260506050531 | 71 | 154 | 2.0 | 6.0 | 0.00 | 0.00 | 0.00 | 71 | 1010.8 |
| 20260506044523 | 71 | 176 | 2.0 | 6.0 | 0.00 | 0.00 | 0.00 | 71 | 1010.6 |
| 20260506043519 | 70 | 188 | 2.0 | 6.0 | 0.00 | 0.00 | 0.00 | 71 | 1010.7 |
| 20260506042534 | 70 | 174 | 2.0 | 4.0 | 0.00 | 0.00 | 0.00 | 71 | 1010.7 |
| 20260506041551 | 70 | 183 | 2.0 | 4.0 | 0.00 | 0.00 | 0.00 | 71 | 1010.7 |
| 20260506040527 | 71 | 180 | 2.0 | 4.0 | 0.00 | 0.00 | 0.00 | 70 | 1010.7 |
| 20260506035522 | 71 | 167 | 2.0 | 4.0 | 0.00 | 0.00 | 0.00 | 70 | 1010.8 |
| 20260506034518 | 71 | 188 | 2.0 | 7.0 | 0.00 | 0.00 | 0.00 | 70 | 1010.7 |
| 20260506033534 | 71 | 162 | 2.0 | 6.0 | 0.00 | 0.00 | 0.00 | 70 | 1010.5 |
| 20260506032530 | 71 | 166 | 2.0 | 8.0 | 0.00 | 0.00 | 0.00 | 70 | 1010.8 |
| 20260506031526 | 71 | 160 | 2.0 | 6.0 | 0.00 | 0.00 | 0.00 | 70 | 1010.8 |
| 20260506030522 | 71 | 210 | 2.0 | 4.0 | 0.00 | 0.00 | 0.00 | 70 | 1010.8 |
| 20260506025537 | 71 | 195 | 3.0 | 6.0 | 0.00 | 0.00 | 0.00 | 70 | 1010.8 |
| 20260506024533 | 71 | 175 | 2.0 | 6.0 | 0.00 | 0.00 | 0.00 | 70 | 1010.6 |
| 20260506023529 | 71 | 182 | 2.0 | 4.0 | 0.00 | 0.00 | 0.00 | 70 | 1010.7 |
| 20260506022524 | 71 | 170 | 2.0 | 6.0 | 0.00 | 0.00 | 0.00 | 69 | 1010.6 |
| 20260506021520 | 70 | 180 | 2.0 | 6.0 | 0.00 | 0.00 | 0.00 | 69 | 1010.1 |
| 20260506020516 | 71 | 144 | 2.0 | 4.0 | 0.00 | 0.00 | 0.00 | 68 | 1009.9 |
| 20260506015532 | 71 | 173 | 2.0 | 4.0 | 0.00 | 0.00 | 0.00 | 69 | 1010.3 |
| 20260506014527 | 71 | 197 | 2.0 | 6.0 | 0.00 | 0.00 | 0.00 | 68 | 1010.7 |
| 20260506013543 | 71 | 154 | 2.0 | 8.0 | 0.00 | 0.00 | 0.00 | 68 | 1010.6 |
| 20260506012519 | 71 | 164 | 3.0 | 6.0 | 0.00 | 0.00 | 0.00 | 68 | 1010.4 |
| 20260506011555 | 71 | 174 | 2.0 | 6.0 | 0.00 | 0.00 | 0.00 | 67 | 1010.2 |
| 20260506010530 | 72 | 176 | 3.0 | 6.0 | 0.00 | 0.00 | 0.00 | 67 | 1010.4 |
| 20260506005526 | 72 | 198 | 3.0 | 8.0 | 0.00 | 0.00 | 0.00 | 66 | 1010.3 |
| 20260506004522 | 72 | 184 | 2.0 | 7.0 | 0.00 | 0.00 | 0.00 | 66 | 1010.3 |
| 20260506003518 | 72 | 163 | 2.0 | 7.0 | 0.00 | 0.00 | 0.00 | 66 | 1010.2 |
| 20260506002554 | 72 | 172 | 3.0 | 7.0 | 0.00 | 0.00 | 0.00 | 66 | 1010.2 |
| 20260506001529 | 72 | 162 | 2.0 | 6.0 | 0.00 | 0.00 | 0.00 | 65 | 1010.1 |
| 20260506000524 | 72 | 174 | 2.0 | 7.0 | 0.00 | 0.00 | 0.00 | 64 | 1010.2 |
| 20260505235520 | 73 | 189 | 3.0 | 8.0 | 0.00 | 0.00 | 0.00 | 64 | 1010.3 |
| 20260505234516 | 73 | 188 | 2.0 | 6.0 | 0.00 | 0.00 | 0.00 | 64 | 1010.4 |
| 20260505233531 | 73 | 141 | 2.0 | 7.0 | 0.00 | 0.00 | 0.00 | 63 | 1010.6 |
| 20260505232546 | 73 | 197 | 4.0 | 10.0 | 0.00 | 0.00 | 0.00 | 63 | 1010.8 |
| 20260505231521 | 73 | 166 | 3.0 | 8.0 | 0.00 | 0.00 | 0.00 | 63 | 1011.0 |
| 20260505230537 | 74 | 182 | 3.0 | 9.0 | 0.00 | 0.00 | 0.00 | 63 | 1011.0 |
| 20260505225533 | 73 | 187 | 2.0 | 3.0 | 0.00 | 0.00 | 0.00 | 63 | 1010.9 |
| 20260505224529 | 73 | 170 | 3.0 | 9.0 | 0.00 | 0.00 | 0.00 | 62 | 1011.1 |
| 20260505223524 | 73 | 202 | 3.0 | 7.0 | 0.00 | 0.00 | 0.00 | 62 | 1011.4 |
| 20260505222520 | 73 | 164 | 4.0 | 8.0 | 0.00 | 0.00 | 0.00 | 61 | 1011.4 |
| 20260505221516 | 74 | 174 | 3.0 | 6.0 | 0.00 | 0.00 | 0.00 | 61 | 1011.2 |
| 20260505220532 | 74 | 180 | 3.0 | 10.0 | 0.00 | 0.00 | 0.00 | 60 | 1011.4 |
| 20260505215528 | 74 | 168 | 5.0 | 9.0 | 0.00 | 0.00 | 0.00 | 60 | 1011.3 |
| 20260505214543 | 75 | 175 | 4.0 | 13.0 | 0.00 | 0.00 | 0.00 | 60 | 1011.2 |
| 20260505213519 | 75 | 224 | 2.0 | 4.0 | 0.00 | 0.00 | 0.00 | 60 | 1011.3 |
| 20260505212535 | 75 | 187 | 2.0 | 6.0 | 0.00 | 0.00 | 0.00 | 60 | 1011.2 |
| 20260505211531 | 75 | 139 | 4.0 | 11.0 | 0.00 | 0.00 | 0.00 | 60 | 1011.3 |
| 20260505210527 | 74 | 198 | 4.0 | 11.0 | 0.00 | 0.00 | 0.00 | 60 | 1011.2 |
| 20260505205523 | 74 | 161 | 4.0 | 9.0 | 0.00 | 0.00 | 0.00 | 60 | 1010.9 |
| 20260505204519 | 74 | 165 | 3.0 | 8.0 | 0.00 | 0.00 | 0.00 | 60 | 1011.0 |
| 20260505203535 | 74 | 168 | 2.0 | 4.0 | 0.00 | 0.00 | 0.00 | 59 | 1011.0 |
| 20260505202551 | 74 | 147 | 2.0 | 7.0 | 0.00 | 0.00 | 0.00 | 59 | 1011.1 |
| 20260505201527 | 74 | 116 | 2.0 | 6.0 | 0.00 | 0.00 | 0.00 | 58 | 1011.2 |
| 20260505200523 | 74 | 98 | 1.0 | 7.0 | 0.00 | 0.00 | 0.00 | 58 | 1011.5 |
| 20260505195519 | 74 | 155 | 2.0 | 6.0 | 0.00 | 0.00 | 0.00 | 57 | 1011.4 |
| 20260505194715 | 74 | 191 | 3.0 | 8.0 | 0.00 | 0.00 | 0.00 | 57 | 1011.2 |
| 20260505193551 | 75 | 170 | 2.0 | 7.0 | 0.00 | 0.00 | 0.00 | 55 | 1011.6 |
| 20260505192607 | 76 | 147 | 2.0 | 6.0 | 0.00 | 0.00 | 0.00 | 53 | 1011.9 |
| 20260505191522 | 77 | 201 | 2.0 | 8.0 | 0.00 | 0.00 | 0.00 | 54 | 1012.6 |
| 20260505190518 | 77 | 173 | 3.0 | 8.0 | 0.00 | 0.00 | 0.00 | 53 | 1013.1 |
| 20260505185534 | 78 | 177 | 3.0 | 13.0 | 0.00 | 0.00 | 0.00 | 53 | 1013.1 |
| 20260505184530 | 79 | 156 | 4.0 | 9.0 | 0.00 | 0.00 | 0.00 | 54 | 1013.1 |
| 20260505183526 | 79 | 187 | 3.0 | 9.0 | 0.00 | 0.00 | 0.00 | 54 | 1013.2 |
| 20260505182521 | 79 | 169 | 3.0 | 10.0 | 0.00 | 0.00 | 0.00 | 55 | 1013.2 |
| 20260505181517 | 79 | 199 | 3.0 | 9.0 | 0.00 | 0.00 | 0.00 | 55 | 1013.2 |
| 20260505180533 | 79 | 170 | 5.0 | 11.0 | 0.00 | 0.00 | 0.00 | 55 | 1013.2 |
| 20260505175529 | 78 | 170 | 4.0 | 10.0 | 0.00 | 0.00 | 0.00 | 55 | 1013.1 |
| 20260505174525 | 78 | 160 | 3.0 | 7.0 | 0.00 | 0.00 | 0.00 | 57 | 1013.3 |
| 20260505173521 | 77 | 127 | 2.0 | 7.0 | 0.00 | 0.00 | 0.00 | 55 | 1013.5 |
| 20260505172517 | 78 | 174 | 5.0 | 11.0 | 0.00 | 0.00 | 0.00 | 55 | 1013.6 |
| 20260505171533 | 78 | 121 | 4.0 | 9.0 | 0.00 | 0.00 | 0.00 | 57 | 1013.8 |
| 20260505170529 | 77 | 184 | 3.0 | 7.0 | 0.00 | 0.00 | 0.00 | 57 | 1013.9 |
| 20260505165605 | 78 | 168 | 3.0 | 11.0 | 0.00 | 0.00 | 0.00 | 58 | 1014.0 |
| 20260505164521 | 78 | 216 | 4.0 | 14.0 | 0.00 | 0.00 | 0.00 | 59 | 1013.8 |
| 20260505163537 | 77 | 174 | 4.0 | 11.0 | 0.00 | 0.00 | 0.00 | 60 | 1014.0 |
| 20260505162553 | 77 | 186 | 5.0 | 10.0 | 0.00 | 0.00 | 0.00 | 60 | 1013.9 |
| 20260505161529 | 77 | 183 | 4.0 | 11.0 | 0.00 | 0.00 | 0.00 | 61 | 1013.9 |
| 20260505160524 | 77 | 168 | 4.0 | 9.0 | 0.00 | 0.00 | 0.00 | 65 | 1013.8 |
| 20260505152529 | 75 | 180 | 2.0 | 6.0 | 0.00 | 0.00 | 0.00 | 67 | 1013.9 |
| 20260505151524 | 75 | 173 | 2.0 | 6.0 | 0.00 | 0.00 | 0.00 | 69 | 1013.9 |
| 20260505150539 | 75 | 175 | 3.0 | 7.0 | 0.00 | 0.00 | 0.00 | 72 | 1014.1 |
| 20260505140535 | 69 | 182 | 1.0 | 4.0 | 0.00 | 0.00 | 0.00 | 77 | 1014.1 |
| 20260505124522 | 60 | 144 | 1.0 | 3.0 | 0.00 | 0.00 | 0.00 | 84 | 1013.9 |
| 20260505123518 | 58 | 153 | 1.0 | 3.0 | 0.00 | 0.00 | 0.00 | 84 | 1013.8 |
| 20260505122534 | 56 | 89 | 1.0 | 2.0 | 0.00 | 0.00 | 0.00 | 83 | 1013.8 |
| 20260505121529 | 56 | 151 | 1.0 | 2.0 | 0.00 | 0.00 | 0.00 | 83 | 1013.8 |
| 20260505120525 | 55 | 181 | 0.0 | 1.0 | 0.00 | 0.00 | 0.00 | 82 | 1014.0 |
| 20260505115521 | 55 | 180 | 0.0 | 1.0 | 0.00 | 0.00 | 0.00 | 82 | 1013.5 |
| 20260505114517 | 54 | 181 | 0.0 | 1.0 | 0.00 | 0.00 | 0.00 | 81 | 1013.3 |
| 20260505113533 | 55 | 180 | 0.0 | 1.0 | 0.00 | 0.00 | 0.00 | 80 | 1012.9 |
| 20260505112529 | 55 | 180 | 0.0 | 1.0 | 0.00 | 0.00 | 0.00 | 80 | 1012.9 |
| 20260505111525 | 55 | 179 | 0.0 | 1.0 | 0.00 | 0.00 | 0.00 | 79 | 1012.9 |
| 20260505110521 | 55 | 0.0 | 0.0 | 0.00 | 0.00 | 0.00 | 78 | 1012.7 | |
| 20260505101520 | 56 | 179 | 0.0 | 1.0 | 0.00 | 0.00 | 0.00 | 77 | 1012.0 |
| 20260505100516 | 57 | 179 | 0.0 | 1.0 | 0.00 | 0.00 | 0.00 | 77 | 1012.1 |
| 20260505095532 | 57 | 179 | 0.0 | 1.0 | 0.00 | 0.00 | 0.00 | 77 | 1012.0 |
| 20260505094528 | 57 | 179 | 0.0 | 1.0 | 0.00 | 0.00 | 0.00 | 76 | 1011.9 |
| 20260505093524 | 57 | 179 | 0.0 | 1.0 | 0.00 | 0.00 | 0.00 | 76 | 1011.8 |
| 20260505092520 | 56 | 178 | 0.0 | 4.0 | 0.00 | 0.00 | 0.00 | 76 | 1011.9 |
| 20260505091516 | 56 | 186 | 0.0 | 2.0 | 0.00 | 0.00 | 0.00 | 76 | 1012.0 |